Погода в Саккулове

Россия / Челябинская область     55°29′02″N   61°23′33″E
темп.,
°C
ветер,
м/с
пор.,
м/с
влажн.,
%
обл.,
%
осадки,
мм/ч
давл.,
гПа
погр.,
м
13 мая, чт
чт1323:00+16в225218 0.0 102715
02:00+15ю22605 0.0 102714
05:00+14зюз226398 0.0 102710
08:00+19зюз33475 0.0 1027243
11:00+24сз4435100 0.0 10261029
14:00+27ссз45295 0.0 10252047
17:00+27с462536 0.0 10242403
20:00+23ссв233774 0.0 102417
14 мая, пт
пт1423:00+19юв11475 0.0 102611
02:00+17зюз22495 0.0 102611
05:00+16зюз11535 0.0 102711
08:00+21ююз23421 0.0 1027213
11:00+27ююз45295 0.0 10261350
14:00+29зюз45274 0.0 10252849
17:00+30юз452698 0.0 10233047
20:00+24юз484154 0.4 1023147
15 мая, сб
сб1523:00+20зсз454515 0.4 102362
02:00+17зсз455591 0.2 102468
05:00+16з33560 0.3 102435
08:00+22з35455 0.0 1024254
11:00+26з453480 0.0 10231004
14:00+30зюз5725100 0.0 10222844
17:00+30зсз672341 0.0 10213049
20:00+24зсз484040 0.0 1021155
16 мая, вс
вс1623:00+20з4104711 0.0 1021163
02:00+18сз335889 0.0 102124
05:00+17з336116 0.0 102225
08:00+22з34475 0.0 1022267
11:00+28з45315 0.0 10201224
14:00+31зюз56225 0.0 10192946
17:00+31зюз462197 0.0 10173430
20:00+25юз223773 0.2 101713
17 мая, пн
пн1723:00+21з34430 0.2 101740
02:00+19з33495 0.0 101739
05:00+18з34560 0.0 101848
08:00+23з48464 0.0 1018297
11:00+29з682844 0.0 10163011
14:00+29з8102133 0.0 10152959
17:00+29зсз792480 0.0 10153317
20:00+24з464281 0.0 101492